Regional Weather Roundup
Issued by NWS

Home | Current Version | Previous Version | Text Only | Print | Product List | Glossary On
Versions: 1 2 3 4 5 6 7 8 9 10 11 12 13 14 15 16 17 18 19 20 21 22 23 24 25 26 27
000
ASUS44 KBMX 241410
RWRAL

ALABAMA REGIONAL WEATHER ROUNDUP
NATIONAL WEATHER SERVICE BIRMINGHAM AL
900 AM CDT THU APR 24 2014

NOTE: "FAIR" INDICATES FEW OR NO CLOUDS BELOW 12,000 FEET
WITH NO SIGNIFICANT WEATHER AND/OR OBSTRUCTIONS TO VISIBILITY.

THE REMARK "TC" DENOTES TEMPERATURE IN DEGREES CELSIUS.

ALZ001>011-014-016>018-020-241500-
NORTH ALABAMA

CITY           SKY/WX    TMP DP  RH WIND       PRES   REMARKS
MUSCLE SHOALS  SUNNY     61  46  57 SE5       30.00R
HUNTSVILLE     MOSUNNY   64  41  42 SE9       30.01R
DECATUR        SUNNY     61  44  53 E5        30.01R
HALEYVILLE     FAIR      64  43  46 S8        30.02R
GADSDEN        SUNNY     61  41  48 E8        30.03S
$$

ALZ012-013-022-023-030>036-040>044-241500-
WEST CENTRAL ALABAMA

CITY           SKY/WX    TMP DP  RH WIND       PRES   REMARKS
TUSCALOOSA     PTSUNNY   63  50  62 CALM      30.00R
$$

ALZ015-024>027-033>036-040>044-241500-
CENTRAL ALABAMA

CITY           SKY/WX    TMP DP  RH WIND       PRES   REMARKS
BIRMINGHAM     MOSUNNY   67  39  35 E3        30.02S
MONTGOMERY     CLOUDY    67  47  48 E7        30.00S
SHELBY CO ARPT MOSUNNY   64  44  48 VRB6      30.01S
MAXWELL AFB    CLOUDY    67  51  55 NE5       30.00R
GREENVILLE     FAIR      70  52  52 SE7       29.99
$$

ALZ019-021-028-029-037-038-045>048-241500-
EAST CENTRAL ALABAMA

CITY           SKY/WX    TMP DP  RH WIND       PRES   REMARKS
ANNISTON       SUNNY     62  43  49 NE8       30.03R
ALEXANDER CITY MOSUNNY   66  41  39 E3        30.03R
AUBURN         SUNNY     64  41  42 E8        30.05R
$$

ALZ051>064-241500-
SOUTHWEST ALABAMA

CITY           SKY/WX    TMP DP  RH WIND       PRES   REMARKS
MOBILE         CLOUDY    67  67 100 S3        30.00R FOG
BROOKLEY FIELD CLOUDY    70  68  93 E5        30.00R FOG
EVERGREEN      SUNNY     70  63  78 CALM      30.00R
$$

ALZ049-050-065>069-241500-
SOUTHEAST ALABAMA

CITY           SKY/WX    TMP DP  RH WIND       PRES   REMARKS
DOTHAN         CLOUDY    70  50  49 E7        30.04S
OZARK          MOSUNNY   69  61  76 SE6       30.00S
TROY           MOSUNNY   70  48  45 SE5       30.00S
EUFAULA        FAIR      70  51  51 CALM      30.00S
$$



USA.gov is the U.S. government's official web portal to all federal, state and local government web resources and services.